Location: Buchloe
(48.0161°N, 10.7316°E)
Time: 05:02:57
(UTC+02:00)

ISS - Pass Details

Date: 23 May 2018
Orbit: 402 x 407 km, 51.6° (Epoch: 25 May)

Event Time Altitude Azimuth Distance (km) Brightness Sun altitude
Rises 23:43:12 0° 269° (W) 2,316 0.3 -18.3°
Reaches altitude 10° 23:45:20 10° 276° (W) 1,457 -0.7 -18.5°
Maximum altitude 23:48:30 46° 351° (N) 555 -2.7 -18.7°
Drops below altitude 10° 23:51:40 10° 67° (ENE) 1,457 -1.0 -18.8°
Sets 23:53:48 0° 73° (ENE) 2,317 0.0 -19.0°
